ORBCOMM FM32

Last updated on Wed Aug 19 2026 00:03:10 GMT+0000 (Coordinated Universal Time)

1 25982U 99065C 26230.43576512 .00000449 00000+0 19678-3 0 9991 2 25982 45.0139 238.5759 0006414 345.1081 14.9578 14.37205589396046
UTC large
Height (km)
Speed (km/s)
/
Latitude / Longitude
Inclination (degrees)
Orbital Period (minutes)
Azimuth
Elevation
Range (km)
Doppler Factor

Next 0 passes for location: London (51.5072 / 0.1276)

No passes found over London.
ORBCOMM FM32